This demonstration page uses our WeatherBlox Daily Observations layout. Learn more.

Left ArrowRight Arrow

36.17497, -115.13722

Hourly Observations for December 25, 2019

Temp ( °F °C ) Dew Point ( °F °C ) Humidity (%) Winds ( mph kmh ) Pressure ( in mb ) Visibility ( mi km ) Precip ( " mm )
12:58 am 00:58 Mostly Clear 41 5.2 41 5.2 100 100 N 7 11 29.79 1009 10 16 0.00 0.00
1:58 am 01:58 Mostly Clear 41 5 N/A N/A N 6 9 29.81 1009 10 16 0.00 0.00
2:58 am 02:58 Clear 41 5 N/A N/A NNW 3 6 29.80 1009 10 16 0.00 0.00
3:58 am 03:58 Clear 41 5 N/A N/A Calm 29.81 1009 10 16 0.00 0.00
4:58 am 04:58 Clear 39 4 N/A N/A NE 3 6 29.81 1010 10 16 0.00 0.00
5:58 am 05:58 Clear 41 5 N/A N/A Calm 29.83 1010 10 16 0.00 0.00
6:58 am 06:58 Partly Cloudy 40 4.6 40 4.6 100 100 Calm 29.83 1010 10 16 0.00 0.00
7:58 am 07:58 Sunny 42 5.4 42 5.4 100 100 NNW 5 7 29.85 1011 10 16 0.00 0.00
8:58 am 08:58 Sunny 44 6.6 40 4.3 85 85 Calm 29.89 1012 10 16 0.00 0.00
9:58 am 09:58 Cloudy 48 8.7 35 1.4 60 60 SE 13 20 29.89 1012 10 16 0.00 0.00
10:58 am 10:58 Sunny 49 9.6 38 3.1 64 64 E 15 24 29.87 1012 10 16 0.00 0.00
11:46 am 11:46 Cloudy 48 9 39 4 71 71 E 13 20 29.85 1011 10 16 0.00 0.00
11:58 am 11:58 Cloudy 49 9.2 40 4.2 71 71 E 12 19 29.85 1011 10 16 0.00 0.00
12:05 pm 12:05 Cloudy 48 9 41 5 76 76 E 13 20 29.85 1011 10 16 0.00 0.00
12:09 pm 12:09 Mostly Cloudy 48 9 41 5 76 76 E 13 20 29.85 1011 10 16 0.00 0.00
12:11 pm 12:11 Mostly Cloudy 48 9 41 5 76 76 E 12 19 29.85 1011 10 16 0.00 0.00
12:58 pm 12:58 Mostly Cloudy 49 9.5 40 4.7 72 72 E 9 15 29.84 1010 10 16 0.00 0.00
1:58 pm 13:58 Mostly Cloudy 50 9.8 40 4.2 68 68 E 12 19 29.84 1011 10 16 0.00 0.00
2:58 pm 14:58 Sunny 49 9.5 40 4.5 71 71 E 9 15 29.85 1011 10 16 0.00 0.00
3:58 pm 15:58 Sunny 50 10 36 2.1 58 58 ESE 7 11 29.86 1011 10 16 0.00 0.00
4:58 pm 16:58 Mostly Cloudy 47 8.4 35 1.8 63 63 ESE 7 11 29.88 1012 10 16 0.00 0.00
5:58 pm 17:58 Mostly Clear 46 7.7 32 0 59 59 SE 3 6 29.90 1012 10 16 0.00 0.00
6:58 pm 18:58 Mostly Clear 43 6.1 42 5.4 95 95 NNE 12 19 29.91 1013 10 16 0.00 0.00
7:58 pm 19:58 Mostly Clear 42 5.5 42 5.5 100 100 NE 10 17 29.93 1014 10 16 0.00 0.00
8:58 pm 20:58 Mostly Cloudy 42 5.7 42 5.7 100 100 NNE 13 20 29.95 1014 10 16 0.00 0.00
9:58 pm 21:58 Mostly Cloudy 42 5.8 42 5.8 100 100 ENE 13 20 29.94 1014 10 16 0.00 0.00
10:58 pm 22:58 Mostly Cloudy 42 5.7 42 5.7 100 100 NE 12 19 29.96 1015 10 16 0.00 0.00
11:58 pm 23:58 Clear 43 6 43 6 100 100 NE 13 20 29.94 1014 10 16 0.00 0.00

Powered by AerisWeather